Weather History for Osoyoos, British Columbia

Change the Weather History Date:

Monday, February 3, 2014

  Actual Average Record
Temperature  
Mean Temperature 26 °F -  
Max Temperature 28 °F - - ()
Min Temperature 22 °F - - ()
Degree Days  
Heating Degree Days 40    
Moisture  
Dew Point 11 °F    
Average Humidity 52    
Maximum Humidity 64    
Minimum Humidity 33    
Precipitation  
Precipitation 0.00 in - - ()
Sea Level Pressure  
Sea Level Pressure 30.21 in    
Wind  
Wind Speed 12 mph ()    
Max Wind Speed 16 mph    
Max Gust Speed 26 mph    
T = Trace of Precipitation, MM = Missing Value Source: Averaged Metar Reports

Daily Weather History Graph

Daily Weather History Graph

Search for Another Location

Airport:

Trip Planner

Search our weather history database for the weather conditions in past years. The results will help you decide how hot, cold, wet, or windy it might be!

Date:

Astronomy

Feb. 03, 2014 Rise Set
Actual Time 7:25 AM PST 4:58 PM PST
Civil Twilight 6:51 AM PST 5:32 PM PST
Nautical Twilight 6:13 AM PST 6:10 PM PST
Astronomical Twilight 5:36 AM PST 6:47 PM PST
Moon 9:03 AM PST (2/3) 10:24 PM PST (2/3)
Length of Visible Light 10h 40m
Length of Day
9h 33m
Waxing Crescent, 20% of the Moon is Illuminated
Feb 3
Waxing Crescent
Feb 6
First Quarter
Feb 14
Full
Feb 22
Last Quarter
Mar 1
New

Hourly Weather History & Observations

Time (PST) Temp. Windchill Dew Point Humidity Pressure Visibility Wind Dir Wind Speed Gust Speed Precip Events Conditions
12:00 AM 26.6 °F 14.7 °F 15.1 °F 62% 30.09 in - NNW 15.0 mph 24.2 mph N/A   Unknown
1:00 AM 26.1 °F 15.0 °F 15.4 °F 64% 30.10 in - NNW 12.7 mph 20.7 mph N/A   Unknown
2:00 AM 26.2 °F 15.2 °F 15.1 °F 63% 30.11 in - NNW 12.7 mph 21.9 mph N/A   Unknown
3:00 AM 26.2 °F 14.2 °F 12.4 °F 56% 30.12 in - North 15.0 mph 25.3 mph N/A   Unknown
4:00 AM 26 °F - 11 °F 40% 30.12 in - North 11.5 mph - -  
4:00 AM 27.5 °F 17.4 °F 11.5 °F 51% 30.12 in - North 11.5 mph 20.7 mph N/A   Unknown
5:00 AM 25.9 °F 14.8 °F 11.7 °F 55% 30.13 in - North 12.7 mph 20.7 mph N/A   Unknown
6:00 AM 27.5 °F 15.9 °F 12.0 °F 52% 30.14 in - NNW 15.0 mph 24.2 mph N/A   Unknown
7:00 AM 25.3 °F 14.7 °F 11.8 °F 57% 30.15 in - NNW 11.5 mph 20.7 mph N/A   Unknown
8:00 AM 25.5 °F 15.5 °F 11.1 °F 54% 30.17 in - North 10.4 mph 21.9 mph N/A   Unknown
9:00 AM 25.5 °F 13.8 °F 10.8 °F 54% 30.19 in - North 13.8 mph 21.9 mph N/A   Unknown
10:00 AM 26 °F - 10 °F 36% 30.20 in - North 16.1 mph - -  
10:00 AM 25.9 °F 13.3 °F 10.0 °F 51% 30.20 in - North 16.1 mph 24.2 mph N/A   Unknown
11:00 AM 27.5 °F 15.9 °F 10.9 °F 50% 30.22 in - North 15.0 mph 24.2 mph N/A   Unknown
12:00 PM 26.4 °F 15.5 °F 10.2 °F 51% 30.22 in - NNW 12.7 mph 24.2 mph N/A   Unknown
1:00 PM 27.3 °F 16.6 °F 10.2 °F 49% 30.22 in - NNW 12.7 mph 21.9 mph N/A   Unknown
2:00 PM 26.8 °F 14.9 °F 9.1 °F 47% 30.22 in - NNW 15.0 mph 23.0 mph N/A   Unknown
3:00 PM 27.0 °F 15.6 °F 9.0 °F 47% 30.23 in - NNW 13.8 mph 26.5 mph N/A   Unknown
4:00 PM 27 °F - 9 °F 33% 30.24 in - NNW 11.5 mph - -  
4:00 PM 26.8 °F 16.5 °F 9.3 °F 48% 30.24 in - NNW 11.5 mph 21.9 mph N/A   Unknown
5:00 PM 25.9 °F 14.8 °F 9.7 °F 50% 30.26 in - NNW 12.7 mph 20.7 mph N/A   Unknown
6:00 PM 25.3 °F 14.1 °F 9.9 °F 52% 30.27 in - NNW 12.7 mph 23.0 mph N/A   Unknown
7:00 PM 24.6 °F 13.2 °F 12.0 °F 59% 30.29 in - NNW 12.7 mph 21.9 mph N/A   Unknown
8:00 PM 24.3 °F 12.7 °F 10.2 °F 55% 30.30 in - NNW 12.7 mph 20.7 mph N/A   Unknown
9:00 PM 23.5 °F 12.4 °F 9.1 °F 54% 30.33 in - NNW 11.5 mph 19.6 mph N/A   Unknown
10:00 PM 23 °F - 9 °F 41% 30.35 in - NNW 10.4 mph - -  
10:00 PM 23.2 °F 12.6 °F 9.0 °F 55% 30.35 in - NNW 10.4 mph 17.3 mph N/A   Unknown
11:00 PM 22.1 °F 10.6 °F 9.0 °F 57% 30.35 in - NW 11.5 mph 20.7 mph N/A   Unknown